[[{"header":{"parameterUnit":"m.s-1","parameterCategory":1,"la1":30.2991,"la2":30.254,"lo1":-89.0895,"lo2":-89.0444,"dy":0.0017,"dx":0.0017,"nx":28,"ny":28,"refTime":"2025-07-17T09:00:00:Z","depth":0,"parameterNumber":2,"parameterNumberName":"U-component_of_WINDS"},"data":[0,0,0,0,0,0,0,0,0,0,0,0,0,0,0,0,0,0,0,0,0,0,0,0,0,0,0,0,0,0,0,0,0,0,0,0,0,0,0,0,0,0,0,0,0,0,0,0,0,0,0,0,0,0,0,0,0,0,1.2617,1.2616,0,1.2559,1.2558,1.2558,1.2489,1.2488,1.2487,1.2486,1.2427,1.2427,1.2426,0,0,0,0,0,0,0,0,0,0,0,0,0,1.2668,1.2667,1.2617,1.2616,1.2615,1.2559,1.2558,1.2558,1.2489,1.2488,1.2487,1.2486,1.2428,1.2427,1.2426,0,0,0,0,0,0,0,0,0,0,0,0,0,1.2631,1.2667,1.2617,1.2575,1.257,1.2559,1.2558,1.2557,1.249,1.2488,1.2486,1.2485,1.2428,1.2427,1.2426,1.2453,0,0,1.2424,1.2423,0,0,0,0,0,0,0,0,1.2634,1.263,1.2581,1.2577,1.2572,1.253,1.2555,1.2522,1.249,1.252,1.2486,1.2484,1.2463,1.2459,1.2452,1.245,1.2447,1.2423,1.2423,1.2423,1.2422,0,0,0,0,0,0,0,1.2636,1.2632,1.2594,1.2581,1.2575,1.2558,1.2551,1.2548,1.2501,1.2517,1.2512,1.2506,1.246,1.2453,1.245,1.2446,1.2423,1.2423,1.2422,1.2422,1.2461,1.2463,0,0,0,0,0,0,1.2645,1.2634,1.2596,1.2592,1.26,1.2559,1.2551,1.2545,1.2501,1.2493,1.2508,1.2503,1.2455,1.2451,1.2447,1.2473,1.2423,1.2422,1.2421,1.246,1.2462,1.2463,0,0,0,0,0,0,1.2646,1.2642,1.2598,1.2612,1.2605,1.2559,1.2553,1.2545,1.2537,1.2494,1.2485,1.2509,1.2453,1.2449,1.2451,1.2471,1.2421,1.2421,1.2458,1.246,1.2463,1.2527,0,0,0,0,0,0,1.2648,1.2643,1.2653,1.2613,1.2604,1.2603,1.2555,1.2545,1.2536,1.253,1.2492,1.2485,1.2452,1.2453,1.245,1.2468,1.242,1.2456,1.2459,1.2462,1.2523,1.2532,1.2539,0,0,0,0,0,1.265,1.2674,1.2654,1.2649,1.2616,1.2605,1.26,1.2561,1.2538,1.2547,1.2519,1.2486,1.2469,1.2454,1.245,1.2469,1.2455,1.2458,1.2462,1.252,1.253,1.2539,0,0,0,0,0,0,1.2718,1.2668,1.2645,1.2656,1.2635,1.2593,1.2603,1.2574,1.2559,1.2554,1.2507,1.2499,1.2507,1.2488,1.2472,1.2491,1.2457,1.246,1.2502,1.2512,1.2519,1.2523,1.2419,0,0,0,0,0,1.2734,1.2729,1.2686,1.27,1.2691,1.2649,1.2643,1.2615,1.2591,1.2582,1.2554,1.2532,1.2522,1.2516,1.2504,1.2521,1.2511,1.2532,1.2539,1.2546,1.2549,1.2554,1.2562,1.2475,1.2475,1.2475,0,0,1.2768,1.274,1.2739,1.2713,1.2693,1.2689,1.2642,1.264,1.2636,1.2582,1.2582,1.2561,1.2533,1.2543,1.2545,1.2527,1.2571,1.255,1.2556,1.2555,1.2558,1.2567,1.2574,1.2477,1.2477,1.2477,0,0,1.2826,1.2805,1.2813,1.2795,1.2765,1.2737,1.274,1.2702,1.2685,1.2685,1.2644,1.2639,1.2622,1.2604,1.2592,1.2643,1.2612,1.2641,1.2681,1.2687,1.2693,1.2699,1.2715,1.2722,1.2644,1.2644,1.2644,0,1.2871,1.2862,1.2822,1.2821,1.281,1.2761,1.2769,1.2753,1.2722,1.2715,1.2695,1.2673,1.2651,1.2654,1.2666,1.266,1.266,1.2644,1.2696,1.2701,1.2706,1.2721,1.2727,1.2648,1.2647,1.2647,1.2647,0,1.2918,1.2913,1.2924,1.2894,1.2884,1.2888,1.2848,1.2843,1.2816,1.279,1.279,1.2762,1.2743,1.2742,1.2717,1.2741,1.2731,1.2705,1.2669,1.2719,1.2732,1.2737,1.2653,1.2652,1.2651,1.265,0,0,1.3016,1.2963,1.2968,1.2953,1.2917,1.2912,1.2914,1.2895,1.2891,1.2871,1.287,1.2858,1.2832,1.282,1.2791,1.2797,1.2836,1.2769,1.2768,1.2781,1.286,1.2879,1.2886,1.2816,1.2817,1.2818,1.2861,0,1.3066,1.3065,1.3028,1.3038,1.3031,1.2985,1.2986,1.2964,1.294,1.2931,1.2905,1.2896,1.2864,1.2856,1.2859,1.2831,1.2851,1.2828,1.2814,1.2814,1.282,1.2893,1.2913,1.2955,1.2867,1.2867,1.2868,0,1.3123,1.3106,1.3115,1.3078,1.3074,1.3075,1.3054,1.3047,1.3021,1.3003,1.2989,1.2956,1.2954,1.2923,1.2919,1.2904,1.2896,1.2881,1.2882,1.2877,1.2842,1.2889,1.2968,1.2974,1.2876,1.2875,1.2875,0,1.3191,1.3171,1.3172,1.3162,1.3119,1.3121,1.3103,1.3075,1.3066,1.3048,1.3041,1.3024,1.3013,1.3,1.2964,1.2945,1.2964,1.2929,1.2947,1.2948,1.2952,1.2952,1.3029,1.2951,1.2951,1.2951,1.2951,0,1.3249,1.3256,1.3202,1.3203,1.3209,1.3167,1.3174,1.3151,1.3127,1.3123,1.3082,1.3079,1.3032,1.3023,1.2995,1.2995,1.2991,1.2976,1.2968,1.2978,1.298,1.2971,1.2966,1.2952,1.2952,1.2952,1.2951,0,1.3325,1.3289,1.3288,1.3248,1.3238,1.3244,1.3209,1.3208,1.3181,1.3176,1.3172,1.3131,1.3118,1.3081,1.306,1.3041,1.3048,1.3035,1.3057,1.3051,1.3071,1.3069,1.3144,1.315,1.307,1.3071,1.3072,0,1.3363,1.3367,1.3327,1.3321,1.3305,1.3296,1.3286,1.3245,1.3236,1.3206,1.3209,1.3193,1.3178,1.316,1.3127,1.311,1.3095,1.3122,1.3092,1.3102,1.3092,1.3092,1.3091,1.3128,1.3129,1.313,1.3131,0,1.3434,1.3416,1.3403,1.3384,1.3373,1.3357,1.3337,1.3335,1.3289,1.3281,1.3268,1.3256,1.3234,1.3218,1.3196,1.3177,1.3146,1.3141,1.3144,1.3153,1.3165,1.3157,1.3073,1.3139,1.3138,1.3138,1.3137,1.3137,1.349,1.3491,1.3462,1.3449,1.3431,1.3414,1.341,1.3383,1.3372,1.335,1.3327,1.3315,1.3288,1.3255,1.3239,1.3229,1.3212,1.3217,1.3218,1.3219,1.3223,1.3169,1.3225,1.3225,1.3224,1.3224,1.3224,0,1.3557,1.3536,1.3525,1.3499,1.3489,1.3462,1.3439,1.3432,1.3422,1.34,1.3386,1.337,1.3354,1.3321,1.3302,1.3301,1.3286,1.3297,1.3295,1.3291,1.324,1.3238,1.3309,1.3309,1.3309,1.3309,1.3309,1.3309,1.359,1.3589,1.3568,1.3558,1.3537,1.3525,1.3515,1.3498,1.348,1.3464,1.3451,1.3429,1.3402,1.3381,1.3365,1.3356,1.335,1.3365,1.3351,1.3303,1.3295,1.3287,1.3285,1.3365,1.3365,1.3403,1.3403,1.3403]},{"header":{"parameterUnit":"m.s-1","parameterCategory":1,"la1":30.2991,"la2":30.254,"lo1":-89.0895,"lo2":-89.0444,"dy":0.0017,"dx":0.0017,"nx":28,"ny":28,"refTime":"2025-07-17T09:00:00:Z","depth":0,"parameterNumber":3,"parameterNumberName":"V-component_of_WINDS"},"data":[0,0,0,0,0,0,0,0,0,0,0,0,0,0,0,0,0,0,0,0,0,0,0,0,0,0,0,0,0,0,0,0,0,0,0,0,0,0,0,0,0,0,0,0,0,0,0,0,0,0,0,0,0,0,0,0,0,0,5.5655,5.5658,0,5.5911,5.5914,5.5917,5.5938,5.5936,5.5933,5.593,5.6192,5.6201,5.621,0,0,0,0,0,0,0,0,0,0,0,0,0,5.518,5.5189,5.5655,5.5658,5.5661,5.5911,5.5914,5.5918,5.5939,5.5935,5.5932,5.5929,5.6189,5.62,5.6211,0,0,0,0,0,0,0,0,0,0,0,0,0,5.5406,5.5192,5.5654,5.5702,5.5708,5.591,5.5914,5.5919,5.594,5.5935,5.5931,5.5927,5.6185,5.6199,5.6213,5.6384,0,0,5.6257,5.6263,0,0,0,0,0,0,0,0,5.5394,5.5424,5.5691,5.5699,5.5707,5.5889,5.5843,5.6075,5.5941,5.5852,5.593,5.5925,5.6094,5.6116,5.6173,5.6397,5.6408,5.6258,5.6267,5.6273,5.6277,0,0,0,0,0,0,0,5.5378,5.5413,5.5756,5.5695,5.5705,5.5709,5.5737,5.5887,5.5993,5.5859,5.5861,5.5891,5.6098,5.6159,5.6179,5.6412,5.6258,5.627,5.6279,5.6285,5.6786,5.679,0,0,0,0,0,0,5.5353,5.54,5.5748,5.5764,5.5537,5.5721,5.5752,5.5834,5.5992,5.6012,5.5895,5.5892,5.6137,5.6162,5.6188,5.6398,5.6273,5.6286,5.6294,5.6781,5.6787,5.6792,0,0,0,0,0,0,5.5343,5.5384,5.5738,5.5583,5.5628,5.5734,5.5826,5.5842,5.5903,5.6018,5.6037,5.5938,5.6134,5.6168,5.6335,5.6407,5.6293,5.6306,5.6776,5.6783,5.679,5.6818,0,0,0,0,0,0,5.533,5.5381,5.5448,5.5584,5.5636,5.5881,5.5831,5.585,5.5928,5.5926,5.6064,5.6083,5.6134,5.6313,5.6349,5.6425,5.6317,5.677,5.6779,5.6787,5.6811,5.6826,5.6838,0,0,0,0,0,5.5313,5.5446,5.5451,5.5493,5.5722,5.5885,5.5915,5.5971,5.5934,5.6001,5.6075,5.6079,5.6393,5.633,5.6371,5.6452,5.6765,5.6776,5.6787,5.6806,5.6823,5.6837,0,0,0,0,0,0,5.5316,5.5465,5.5472,5.5654,5.5756,5.5888,5.5975,5.5987,5.6103,5.6096,5.616,5.6191,5.6355,5.642,5.6347,5.6624,5.6575,5.6595,5.6576,5.6593,5.6606,5.6587,5.6329,0,0,0,0,0,5.5337,5.5458,5.5581,5.5729,5.5781,5.5869,5.5942,5.5976,5.6085,5.6129,5.6215,5.632,5.6442,5.6521,5.6641,5.6821,5.685,5.6896,5.6909,5.692,5.6935,5.7033,5.7055,5.6827,5.6827,5.6827,0,0,5.5384,5.548,5.5552,5.5732,5.5816,5.5938,5.5906,5.6037,5.6127,5.6148,5.6311,5.6377,5.6499,5.6672,5.6753,5.6731,5.7004,5.6933,5.694,5.6951,5.7046,5.7068,5.7087,5.6834,5.6833,5.6832,0,0,5.553,5.5616,5.5748,5.5832,5.5959,5.6016,5.6047,5.6178,5.6223,5.6386,5.6404,5.6512,5.6722,5.6808,5.6878,5.7054,5.7061,5.7091,5.716,5.7254,5.7272,5.7288,5.735,5.7371,5.7107,5.7107,5.7107,0,5.5572,5.5757,5.5814,5.5944,5.6022,5.6046,5.6179,5.6258,5.6417,5.647,5.6443,5.6706,5.679,5.6982,5.7025,5.7082,5.7119,5.7076,5.7265,5.7282,5.7298,5.7357,5.738,5.7109,5.7109,5.7109,5.7109,0,5.58,5.5928,5.602,5.6172,5.626,5.6391,5.6467,5.6549,5.6575,5.6634,5.6799,5.69,5.7039,5.7088,5.7115,5.7284,5.7266,5.7252,5.7204,5.7321,5.7378,5.7401,5.7113,5.7112,5.7111,5.7111,0,0,5.5957,5.6138,5.617,5.6239,5.6379,5.6479,5.661,5.6746,5.6814,5.6923,5.7033,5.7209,5.7196,5.7276,5.7313,5.7396,5.7526,5.7371,5.7375,5.7395,5.7717,5.7726,5.7752,5.7532,5.7537,5.754,5.7706,0,5.6118,5.6353,5.6407,5.6607,5.6725,5.6749,5.6862,5.696,5.7019,5.7127,5.7192,5.7315,5.7289,5.7337,5.7421,5.7493,5.7592,5.7482,5.7634,5.7639,5.7602,5.7781,5.7792,5.7944,5.7729,5.7733,5.7736,0,5.6338,5.645,5.6663,5.6786,5.6837,5.6939,5.7066,5.7169,5.728,5.7317,5.7405,5.7433,5.7568,5.7513,5.77,5.7624,5.769,5.7734,5.7741,5.7757,5.7694,5.7801,5.7994,5.8016,5.7771,5.7768,5.7766,0,5.6429,5.6633,5.6786,5.6844,5.6992,5.7063,5.7127,5.7234,5.7311,5.7423,5.7473,5.7599,5.7667,5.7763,5.7823,5.7778,5.8005,5.7955,5.8038,5.8036,5.8084,5.808,5.8289,5.8128,5.8128,5.8127,5.8127,0,5.6603,5.6731,5.6829,5.6923,5.7067,5.7127,5.7267,5.7332,5.7426,5.7532,5.7561,5.7659,5.7733,5.7841,5.7889,5.8035,5.8067,5.8099,5.811,5.8096,5.8092,5.8139,5.813,5.8133,5.8132,5.8131,5.813,0,5.6728,5.6799,5.6967,5.7093,5.7127,5.7227,5.7334,5.7426,5.7484,5.7618,5.7653,5.7745,5.7874,5.7943,5.8105,5.8137,5.8301,5.8306,5.8263,5.8268,5.8346,5.8337,5.8592,5.8628,5.8443,5.8445,5.8446,0,5.6834,5.6933,5.7069,5.7142,5.7208,5.7325,5.7404,5.7466,5.7546,5.7679,5.7754,5.7884,5.7992,5.8196,5.8277,5.8401,5.8409,5.849,5.8428,5.841,5.8408,5.8401,5.8411,5.85,5.8502,5.8503,5.8505,0,5.7014,5.7043,5.7156,5.728,5.7373,5.7474,5.7574,5.7632,5.771,5.7799,5.7931,5.8014,5.8178,5.8307,5.8436,5.8502,5.8516,5.8523,5.8549,5.8535,5.8505,5.8521,5.8291,5.8517,5.8516,5.8515,5.8514,5.8514,5.7132,5.722,5.7329,5.7453,5.7534,5.7626,5.7717,5.7787,5.7898,5.8036,5.8066,5.8205,5.8311,5.8486,5.8555,5.8664,5.8648,5.8685,5.8695,5.8702,5.8705,5.8489,5.8688,5.8688,5.8688,5.8687,5.8687,0,5.7312,5.7382,5.7495,5.7633,5.773,5.7735,5.7845,5.7925,5.8047,5.8145,5.825,5.84,5.8525,5.8615,5.8741,5.8811,5.882,5.8842,5.8837,5.8851,5.8713,5.8678,5.8832,5.8832,5.8832,5.8832,5.8832,5.8832,5.7417,5.7566,5.7607,5.7796,5.7866,5.8002,5.8064,5.8149,5.8227,5.8394,5.8497,5.8554,5.8649,5.8782,5.8896,5.8919,5.8964,5.8984,5.9008,5.8877,5.8861,5.8847,5.8814,5.8994,5.8994,5.9137,5.9139,5.914]}]]